QPF
0.07 0.09 0.11 0.08 0.07 0.06 0.06 0.07 0.07 0.07 0.08 0.07 0.06 0.04 0.04 0.03 0.03 0.02 0.01 0.02 0.02 0.01 0.01 0.00 0.00 0.00 0.00 0.00 0.00 0.00 0.00 0.00 0.00 0.00 0.00 0.00 0.00 0.00 0.00 0.00 0.00 0.00 0.00 0.00
0.07 0.08 0.06 0.04 0.05 0.04 0.05 0.06 0.06 0.06 0.07 0.07 0.05 0.03 0.02 0.01 0.01 0.01 0.00 0.01 0.01 0.01 0.01 0.00 0.00 0.00 0.00 0.00 0.00 0.00 0.00 0.00 0.00 0.00 0.00 0.00 0.00 0.00 0.00 0.00 0.00 0.00 0.00 0.00
0.07 0.06 0.05 0.05 0.05 0.04 0.04 0.04 0.04 0.05 0.05 0.06 0.04 0.03 0.02 0.02 0.01 0.01 0.01 0.01 0.01 0.01 0.01 0.00 0.00 0.00 0.00 0.00 0.00 0.00 0.00 0.00 0.00 0.00 0.01 0.00 0.00 0.00 0.00 0.00 0.00 0.00 0.00 0.00
0.05 0.04 0.04 0.05 0.05 0.03 0.04 0.03 0.03 0.03 0.04 0.04 0.03 0.03 0.02 0.02 0.01 0.01 0.01 0.02 0.01 0.01 0.01 0.01 0.00 0.00 0.00 0.00 0.00 0.00 0.00 0.00 0.00 0.00 0.00 0.00 0.00 0.00 0.00 0.00 0.00 0.00 0.00 0.00
0.03 0.03 0.04 0.05 0.04 0.03 0.03 0.03 0.05 0.04 0.03 0.02 0.02 0.02 0.02 0.01 0.00 0.00 0.00 0.01 0.01 0.01 0.01 0.01 0.01 0.00 0.00 0.00 0.00 0.00 0.00 0.00 0.00 0.00 0.00 0.00 0.00 0.00 0.00 0.00 0.00 0.00 0.00 0.00
0.03 0.04 0.05 0.04 0.02 0.02 0.02 0.04 0.06 0.07 0.04 0.03 0.02 0.02 0.01 0.01 0.00 0.00 0.00 0.00 0.00 0.01 0.01 0.00 0.00 0.00 0.00 0.00 0.00 0.00 0.00 0.00 0.00 0.00 0.00 0.00 0.00 0.00 0.00 0.00 0.00 0.00 0.00 0.00
0.03 0.04 0.05 0.03 0.02 0.02 0.02 0.04 0.07 0.09 0.07 0.04 0.02 0.02 0.01 0.00 0.00 0.00 0.00 0.00 0.01 0.01 0.00 0.00 0.00 0.00 0.00 0.00 0.00 0.00 0.00 0.00 0.00 0.00 0.00 0.00 0.00 0.00 0.00 0.00 0.00 0.00 0.00 0.00
0.04 0.04 0.05 0.03 0.02 0.03 0.02 0.03 0.04 0.04 0.04 0.03 0.02 0.01 0.01 0.00 0.00 0.00 0.00 0.00 0.01 0.01 0.01 0.00 0.00 0.00 0.00 0.00 0.00 0.00 0.00 0.00 0.00 0.00 0.00 0.00 0.00 0.00 0.00 0.00 0.00 0.00 0.00 0.00
0.03 0.04 0.04 0.02 0.02 0.02 0.02 0.02 0.01 0.02 0.03 0.03 0.02 0.02 0.01 0.00 0.00 0.00 0.00 0.00 0.00 0.01 0.01 0.01 0.00 0.00 0.00 0.00 0.00 0.00 0.00 0.00 0.00 0.00 0.00 0.00 0.00 0.00 0.00 0.00 0.00 0.00 0.00 0.00
0.02 0.04 0.05 0.03 0.01 0.01 0.02 0.02 0.02 0.02 0.04 0.05 0.04 0.03 0.01 0.01 0.01 0.00 0.00 0.00 0.00 0.00 0.01 0.01 0.00 0.00 0.00 0.00 0.00 0.00 0.00 0.00 0.00 0.00 0.00 0.00 0.00 0.00 0.00 0.00 0.00 0.00 0.00 0.00
0.02 0.02 0.02 0.02 0.01 0.01 0.01 0.02 0.02 0.02 0.02 0.04 0.04 0.02 0.02 0.01 0.01 0.01 0.01 0.01 0.00 0.00 0.01 0.01 0.01 0.00 0.00 0.00 0.00 0.00 0.00 0.00 0.00 0.00 0.00 0.00 0.00 0.01 0.00 0.00 0.00 0.00 0.00 0.00
0.01 0.01 0.02 0.02 0.01 0.00 0.01 0.01 0.02 0.02 0.02 0.02 0.02 0.02 0.02 0.01 0.01 0.01 0.01 0.00 0.00 0.01 0.01 0.01 0.01 0.01 0.00 0.00 0.00 0.00 0.00 0.00 0.00 0.00 0.00 0.01 0.01 0.01 0.00 0.00 0.00 0.00 0.00 0.00
0.01 0.01 0.02 0.02 0.01 0.01 0.00 0.00 0.01 0.02 0.02 0.02 0.01 0.01 0.01 0.01 0.01 0.01 0.01 0.01 0.01 0.01 0.00 0.01 0.01 0.01 0.01 0.01 0.00 0.00 0.00 0.00 0.00 0.00 0.01 0.01 0.01 0.01 0.00 0.00 0.00 0.00 0.00 0.00
0.01 0.01 0.02 0.04 0.03 0.02 0.01 0.00 0.00 0.01 0.01 0.01 0.02 0.02 0.01 0.01 0.01 0.01 0.01 0.01 0.00 0.00 0.00 0.00 0.00 0.00 0.01 0.01 0.00 0.00 0.00 0.00 0.00 0.00 0.00 0.00 0.00 0.00 0.00 0.00 0.00 0.00 0.00 0.00
0.01 0.01 0.01 0.01 0.01 0.01 0.01 0.00 0.00 0.00 0.00 0.01 0.01 0.01 0.01 0.01 0.00 0.00 0.00 0.01 0.00 0.00 0.00 0.00 0.00 0.00 0.00 0.00 0.00 0.00 0.00 0.00 0.00 0.00 0.00 0.00 0.00 0.00 0.00 0.00 0.00 0.00 0.00 0.00
0.01 0.00 0.01 0.01 0.01 0.01 0.01 0.01 0.00 0.00 0.00 0.00 0.01 0.01 0.00 0.00 0.00 0.00 0.01 0.01 0.00 0.00 0.00 0.00 0.00 0.00 0.00 0.00 0.00 0.00 0.00 0.00 0.00 0.00 0.00 0.00 0.00 0.00 0.00 0.00 0.00 0.00 0.00 0.00
0.00 0.00 0.01 0.01 0.01 0.01 0.01 0.00 0.00 0.00 0.00 0.00 0.00 0.00 0.00 0.00 0.00 0.00 0.00 0.00 0.00 0.00 0.00 0.00 0.00 0.00 0.00 0.00 0.00 0.00 0.00 0.00 0.01 0.01 0.00 0.00 0.00 0.00 0.00 0.00 0.00 0.00 0.01 0.01
0.00 0.00 0.00 0.01 0.01 0.01 0.00 0.00 0.00 0.00 0.00 0.00 0.00 0.00 0.00 0.00 0.00 0.00 0.00 0.00 0.00 0.00 0.00 0.00 0.00 0.00 0.00 0.00 0.00 0.00 0.00 0.00 0.01 0.01 0.00 0.00 0.00 0.00 0.00 0.00 0.00 0.01 0.01 0.01
0.00 0.00 0.00 0.00 0.01 0.01 0.00 0.00 0.00 0.00 0.00 0.00 0.00 0.00 0.00 0.00 0.00 0.00 0.00 0.00 0.00 0.00 0.00 0.00 0.00 0.00 0.00 0.00 0.00 0.00 0.00 0.01 0.01 0.01 0.00 0.00 0.00 0.00 0.00 0.00 0.00 0.00 0.00 0.00
0.00 0.00 0.00 0.00 0.00 0.01 0.00 0.00 0.00 0.00 0.00 0.00 0.00 0.00 0.00 0.00 0.00 0.00 0.01 0.01 0.01 0.01 0.01 0.00 0.00 0.00 0.00 0.00 0.00 0.00 0.01 0.01 0.01 0.00 0.00 0.01 0.00 0.00 0.00 0.00 0.00 0.00 0.01 0.00
0.01 0.01 0.00 0.00 0.00 0.00 0.00 0.00 0.00 0.00 0.00 0.00 0.00 0.00 0.00 0.00 0.00 0.00 0.00 0.01 0.01 0.01 0.01 0.01 0.00 0.00 0.00 0.00 0.00 0.00 0.00 0.00 0.00 0.00 0.00 0.00 0.00 0.00 0.00 0.00 0.00 0.00 0.00 0.00
0.01 0.01 0.00 0.00 0.00 0.00 0.00 0.00 0.00 0.00 0.00 0.00 0.00 0.00 0.00 0.00 0.00 0.00 0.00 0.01 0.01 0.01 0.01 0.00 0.00 0.00 0.01 0.00 0.00 0.00 0.00 0.00 0.00 0.01 0.00 0.00 0.00 0.00 0.00 0.00 0.00 0.00 0.00 0.00
0.00 0.00 0.00 0.00 0.00 0.00 0.00 0.00 0.00 0.00 0.00 0.00 0.00 0.00 0.00 0.00 0.00 0.00 0.00 0.00 0.00 0.01 0.00 0.00 0.00 0.00 0.01 0.01 0.00 0.00 0.00 0.00 0.00 0.00 0.00 0.00 0.00 0.00 0.00 0.00 0.00 0.00 0.00 0.00
0.00 0.00 0.00 0.00 0.00 0.00 0.00 0.00 0.00 0.00 0.00 0.00 0.00 0.00 0.00 0.00 0.00 0.00 0.00 0.01 0.01 0.00 0.00 0.00 0.00 0.00 0.00 0.00 0.00 0.00 0.00 0.00 0.00 0.00 0.00 0.00 0.00 0.00 0.00 0.00 0.00 0.00 0.00 0.00
0.00 0.00 0.01 0.01 0.00 0.00 0.00 0.00 0.00 0.00 0.00 0.00 0.00 0.00 0.00 0.00 0.00 0.00 0.00 0.01 0.01 0.01 0.01 0.01 0.01 0.00 0.00 0.00 0.00 0.00 0.00 0.00 0.00 0.00 0.00 0.00 0.00 0.00 0.00 0.00 0.00 0.00 0.00 0.00
0.00 0.00 0.00 0.00 0.00 0.00 0.00 0.00 0.00 0.00 0.00 0.00 0.00 0.00 0.00 0.00 0.00 0.00 0.00 0.01 0.02 0.02 0.01 0.01 0.01 0.01 0.00 0.00 0.00 0.00 0.00 0.00 0.00 0.00 0.00 0.00 0.00 0.00 0.00 0.00 0.00 0.00 0.00 0.00
MSLP
1015.90 1016.64 1017.30 1017.84 1018.27 1018.61 1018.90 1019.15 1019.37 1019.56 1019.70 1019.76 1019.73 1019.58 1019.34 1019.01 1018.65 1018.30 1017.99 1017.76 1017.62 1017.55 1017.54 1017.56 1017.58 1017.57 1017.56 1017.54 1017.55 1017.61 1017.74 1017.95 1018.24 1018.57 1018.90 1019.20 1019.42 1019.54 1019.55 1019.48 1019.34 1019.18 1019.02 1018.89
1016.74 1017.35 1017.84 1018.20 1018.49 1018.72 1018.96 1019.20 1019.47 1019.73 1019.93 1020.04 1020.01 1019.83 1019.52 1019.10 1018.64 1018.21 1017.85 1017.61 1017.49 1017.47 1017.52 1017.58 1017.62 1017.62 1017.57 1017.50 1017.44 1017.45 1017.55 1017.77 1018.10 1018.50 1018.92 1019.31 1019.62 1019.81 1019.87 1019.82 1019.69 1019.53 1019.37 1019.24
1017.58 1018.07 1018.40 1018.62 1018.78 1018.93 1019.12 1019.37 1019.67 1019.97 1020.21 1020.32 1020.26 1020.01 1019.58 1019.04 1018.46 1017.92 1017.51 1017.24 1017.14 1017.18 1017.29 1017.43 1017.52 1017.54 1017.49 1017.39 1017.29 1017.25 1017.33 1017.55 1017.90 1018.36 1018.86 1019.34 1019.74 1020.02 1020.15 1020.15 1020.06 1019.92 1019.77 1019.66
1018.39 1018.77 1018.98 1019.08 1019.14 1019.23 1019.41 1019.67 1020.00 1020.32 1020.57 1020.65 1020.51 1020.14 1019.57 1018.86 1018.13 1017.47 1016.97 1016.67 1016.59 1016.68 1016.88 1017.10 1017.27 1017.35 1017.33 1017.23 1017.12 1017.05 1017.11 1017.32 1017.69 1018.19 1018.75 1019.31 1019.80 1020.16 1020.37 1020.44 1020.41 1020.32 1020.21 1020.13
1019.13 1019.40 1019.52 1019.53 1019.54 1019.60 1019.78 1020.07 1020.43 1020.76 1020.99 1021.01 1020.77 1020.26 1019.51 1018.62 1017.71 1016.91 1016.31 1015.97 1015.90 1016.04 1016.33 1016.65 1016.92 1017.09 1017.13 1017.07 1016.97 1016.90 1016.94 1017.14 1017.51 1018.02 1018.61 1019.23 1019.78 1020.23 1020.52 1020.67 1020.71 1020.68 1020.63 1020.59
1019.73 1019.92 1019.96 1019.92 1019.90 1019.97 1020.18 1020.50 1020.89 1021.23 1021.43 1021.38 1021.02 1020.35 1019.43 1018.35 1017.27 1016.32 1015.61 1015.22 1015.14 1015.34 1015.71 1016.15 1016.54 1016.81 1016.94 1016.95 1016.88 1016.82 1016.85 1017.03 1017.37 1017.87 1018.48 1019.11 1019.72 1020.22 1020.58 1020.81 1020.93 1020.97 1020.97 1020.98
1020.14 1020.25 1020.23 1020.17 1020.15 1020.25 1020.50 1020.87 1021.29 1021.65 1021.81 1021.69 1021.23 1020.41 1019.32 1018.08 1016.83 1015.75 1014.95 1014.50 1014.42 1014.66 1015.11 1015.65 1016.16 1016.55 1016.79 1016.87 1016.85 1016.81 1016.84 1016.99 1017.30 1017.77 1018.35 1018.98 1019.59 1020.13 1020.55 1020.84 1021.02 1021.12 1021.19 1021.24
1020.27 1020.32 1020.27 1020.20 1020.21 1020.36 1020.66 1021.09 1021.54 1021.90 1022.04 1021.86 1021.31 1020.39 1019.17 1017.79 1016.43 1015.24 1014.37 1013.88 1013.80 1014.06 1014.58 1015.21 1015.82 1016.32 1016.66 1016.82 1016.87 1016.86 1016.88 1017.01 1017.27 1017.69 1018.22 1018.82 1019.42 1019.97 1020.41 1020.75 1020.98 1021.14 1021.25 1021.36
1020.11 1020.11 1020.05 1020.01 1020.06 1020.26 1020.61 1021.08 1021.55 1021.92 1022.04 1021.82 1021.21 1020.21 1018.93 1017.48 1016.05 1014.81 1013.89 1013.38 1013.29 1013.57 1014.13 1014.82 1015.51 1016.10 1016.53 1016.77 1016.88 1016.91 1016.94 1017.04 1017.27 1017.63 1018.11 1018.66 1019.22 1019.75 1020.20 1020.56 1020.83 1021.02 1021.18 1021.32
1019.64 1019.64 1019.59 1019.58 1019.68 1019.93 1020.33 1020.82 1021.30 1021.66 1021.76 1021.51 1020.87 1019.86 1018.56 1017.10 1015.67 1014.42 1013.50 1012.99 1012.90 1013.19 1013.76 1014.48 1015.22 1015.87 1016.36 1016.67 1016.84 1016.91 1016.96 1017.06 1017.26 1017.58 1018.00 1018.50 1019.02 1019.52 1019.96 1020.32 1020.60 1020.82 1021.00 1021.17
1018.92 1018.95 1018.95 1018.99 1019.14 1019.43 1019.84 1020.33 1020.79 1021.12 1021.19 1020.92 1020.28 1019.29 1018.03 1016.63 1015.26 1014.07 1013.19 1012.69 1012.61 1012.89 1013.44 1014.16 1014.90 1015.57 1016.11 1016.47 1016.70 1016.82 1016.91 1017.03 1017.23 1017.52 1017.91 1018.37 1018.85 1019.31 1019.73 1020.08 1020.37 1020.60 1020.79 1020.98
1018.09 1018.17 1018.24 1018.34 1018.54 1018.84 1019.24 1019.69 1020.10 1020.37 1020.39 1020.11 1019.48 1018.54 1017.37 1016.07 1014.81 1013.71 1012.91 1012.45 1012.37 1012.63 1013.16 1013.83 1014.55 1015.21 1015.75 1016.16 1016.44 1016.62 1016.77 1016.94 1017.16 1017.46 1017.84 1018.27 1018.73 1019.17 1019.56 1019.90 1020.18 1020.41 1020.61 1020.80
1017.27 1017.43 1017.57 1017.74 1017.97 1018.27 1018.63 1019.01 1019.33 1019.51 1019.47 1019.15 1018.55 1017.68 1016.62 1015.46 1014.34 1013.37 1012.66 1012.26 1012.19 1012.42 1012.88 1013.49 1014.14 1014.77 1015.31 1015.74 1016.06 1016.32 1016.54 1016.77 1017.05 1017.39 1017.78 1018.21 1018.66 1019.09 1019.47 1019.80 1020.07 1020.29 1020.49 1020.67
1016.60 1016.85 1017.06 1017.28 1017.52 1017.80 1018.09 1018.37 1018.57 1018.64 1018.52 1018.17 1017.59 1016.80 1015.86 1014.85 1013.89 1013.07 1012.46 1012.12 1012.05 1012.24 1012.63 1013.15 1013.72 1014.28 1014.79 1015.23 1015.60 1015.92 1016.22 1016.53 1016.88 1017.28 1017.71 1018.17 1018.62 1019.05 1019.43 1019.75 1020.01 1020.23 1020.42 1020.60
1016.19 1016.51 1016.78 1017.03 1017.27 1017.50 1017.71 1017.87 1017.94 1017.89 1017.68 1017.28 1016.72 1016.00 1015.18 1014.32 1013.52 1012.84 1012.33 1012.05 1011.98 1012.11 1012.41 1012.82 1013.29 1013.78 1014.24 1014.67 1015.06 1015.44 1015.82 1016.22 1016.65 1017.11 1017.59 1018.08 1018.55 1018.99 1019.37 1019.70 1019.96 1020.18 1020.37 1020.53
1016.07 1016.44 1016.75 1017.01 1017.23 1017.40 1017.51 1017.55 1017.49 1017.32 1017.02 1016.59 1016.03 1015.38 1014.67 1013.95 1013.29 1012.74 1012.32 1012.07 1011.99 1012.06 1012.26 1012.55 1012.91 1013.29 1013.69 1014.09 1014.50 1014.91 1015.35 1015.82 1016.31 1016.83 1017.36 1017.88 1018.38 1018.83 1019.23 1019.56 1019.84 1020.06 1020.25 1020.42
1016.24 1016.61 1016.93 1017.18 1017.36 1017.47 1017.50 1017.43 1017.26 1016.99 1016.62 1016.15 1015.61 1015.01 1014.39 1013.80 1013.25 1012.79 1012.44 1012.21 1012.10 1012.09 1012.19 1012.36 1012.58 1012.86 1013.17 1013.52 1013.91 1014.34 1014.81 1015.32 1015.86 1016.41 1016.97 1017.52 1018.03 1018.50 1018.91 1019.26 1019.55 1019.80 1020.00 1020.18
1016.61 1016.96 1017.25 1017.48 1017.62 1017.68 1017.64 1017.49 1017.24 1016.90 1016.48 1016.00 1015.47 1014.93 1014.39 1013.88 1013.42 1013.03 1012.71 1012.48 1012.31 1012.23 1012.20 1012.24 1012.34 1012.50 1012.71 1012.99 1013.33 1013.73 1014.20 1014.71 1015.26 1015.82 1016.39 1016.93 1017.45 1017.92 1018.35 1018.72 1019.04 1019.32 1019.56 1019.76
1017.08 1017.38 1017.63 1017.82 1017.94 1017.96 1017.87 1017.69 1017.40 1017.03 1016.60 1016.12 1015.61 1015.11 1014.63 1014.19 1013.78 1013.43 1013.12 1012.86 1012.64 1012.45 1012.32 1012.22 1012.19 1012.22 1012.32 1012.50 1012.77 1013.12 1013.54 1014.02 1014.53 1015.07 1015.61 1016.14 1016.64 1017.11 1017.55 1017.94 1018.30 1018.61 1018.90 1019.14
1017.53 1017.77 1017.99 1018.15 1018.24 1018.25 1018.16 1017.97 1017.68 1017.32 1016.90 1016.44 1015.97 1015.52 1015.08 1014.67 1014.30 1013.95 1013.63 1013.33 1013.04 1012.76 1012.51 1012.30 1012.13 1012.04 1012.02 1012.10 1012.27 1012.53 1012.88 1013.28 1013.73 1014.21 1014.70 1015.18 1015.65 1016.11 1016.54 1016.95 1017.34 1017.70 1018.03 1018.33
1017.89 1018.09 1018.27 1018.41 1018.51 1018.52 1018.45 1018.28 1018.03 1017.70 1017.32 1016.90 1016.47 1016.05 1015.65 1015.27 1014.90 1014.55 1014.20 1013.85 1013.50 1013.14 1012.79 1012.46 1012.18 1011.97 1011.84 1011.80 1011.87 1012.02 1012.27 1012.58 1012.94 1013.33 1013.74 1014.15 1014.57 1014.99 1015.41 1015.83 1016.23 1016.63 1017.00 1017.35
1018.14 1018.31 1018.47 1018.62 1018.72 1018.76 1018.73 1018.61 1018.40 1018.13 1017.79 1017.42 1017.04 1016.65 1016.27 1015.90 1015.54 1015.18 1014.80 1014.41 1013.99 1013.57 1013.14 1012.72 1012.35 1012.03 1011.80 1011.65 1011.60 1011.65 1011.78 1011.98 1012.23 1012.51 1012.82 1013.16 1013.50 1013.87 1014.25 1014.64 1015.05 1015.46 1015.86 1016.24
1018.30 1018.46 1018.63 1018.78 1018.91 1018.98 1018.99 1018.92 1018.76 1018.54 1018.26 1017.94 1017.59 1017.23 1016.87 1016.52 1016.15 1015.78 1015.39 1014.97 1014.52 1014.05 1013.56 1013.09 1012.64 1012.25 1011.92 1011.68 1011.53 1011.46 1011.47 1011.55 1011.68 1011.85 1012.05 1012.28 1012.54 1012.82 1013.13 1013.48 1013.85 1014.24 1014.63 1015.02
1018.43 1018.60 1018.78 1018.95 1019.09 1019.20 1019.24 1019.20 1019.09 1018.92 1018.68 1018.39 1018.08 1017.75 1017.41 1017.07 1016.71 1016.34 1015.95 1015.52 1015.06 1014.57 1014.06 1013.55 1013.06 1012.61 1012.22 1011.89 1011.64 1011.47 1011.37 1011.33 1011.34 1011.39 1011.48 1011.59 1011.73 1011.91 1012.13 1012.39 1012.68 1013.01 1013.36 1013.71
1018.59 1018.79 1018.97 1019.15 1019.31 1019.42 1019.48 1019.47 1019.38 1019.23 1019.03 1018.77 1018.48 1018.18 1017.86 1017.54 1017.21 1016.85 1016.48 1016.07 1015.62 1015.14 1014.63 1014.12 1013.60 1013.12 1012.67 1012.28 1011.95 1011.69 1011.48 1011.33 1011.23 1011.16 1011.12 1011.11 1011.12 1011.17 1011.26 1011.40 1011.58 1011.79 1012.04 1012.32
1018.84 1019.04 1019.23 1019.41 1019.55 1019.66 1019.71 1019.70 1019.63 1019.49 1019.30 1019.06 1018.80 1018.53 1018.24 1017.94 1017.64 1017.32 1016.98 1016.61 1016.20 1015.74 1015.26 1014.75 1014.24 1013.73 1013.25 1012.80 1012.41 1012.06 1011.77 1011.52 1011.30 1011.12 1010.96 1010.82 1010.70 1010.60 1010.54 1010.52 1010.54 1010.61 1010.72 1010.87
Thickness
5705 5694 5686 5692 5700 5703 5701 5697 5694 5702 5716 5714 5708 5710 5716 5724 5726 5725 5726 5728 5731 5734 5740 5744 5746 5746 5745 5744 5743 5743 5741 5740 5740 5737 5735 5733 5731 5731 5731 5731 5730 5729 5728 5726
5691 5687 5698 5706 5708 5707 5701 5694 5694 5703 5715 5711 5705 5708 5717 5723 5726 5729 5729 5729 5732 5734 5736 5739 5742 5744 5743 5742 5741 5741 5740 5739 5739 5738 5736 5733 5731 5729 5728 5728 5728 5726 5725 5724
5688 5696 5709 5707 5703 5701 5699 5695 5696 5700 5708 5711 5704 5700 5709 5721 5729 5732 5734 5734 5735 5736 5735 5737 5740 5741 5741 5740 5740 5741 5739 5739 5738 5738 5735 5732 5729 5727 5725 5724 5724 5724 5723 5722
5694 5704 5707 5702 5700 5702 5693 5708 5708 5705 5697 5689 5699 5681 5702 5715 5720 5727 5731 5733 5735 5739 5739 5739 5739 5739 5740 5740 5741 5740 5739 5738 5737 5736 5734 5730 5725 5721 5721 5721 5721 5721 5720 5719
5693 5702 5702 5699 5704 5709 5704 5715 5711 5705 5697 5690 5695 5686 5697 5713 5714 5724 5732 5736 5738 5741 5741 5740 5741 5741 5742 5741 5740 5739 5738 5736 5735 5734 5732 5728 5724 5722 5721 5720 5719 5718 5718 5717
5701 5710 5710 5708 5715 5717 5715 5710 5704 5697 5690 5679 5693 5688 5693 5710 5723 5731 5736 5739 5741 5742 5742 5742 5742 5742 5740 5740 5739 5738 5736 5734 5733 5732 5730 5727 5724 5721 5719 5717 5715 5714 5714 5713
5694 5702 5712 5716 5707 5710 5707 5689 5673 5671 5668 5675 5698 5695 5703 5731 5741 5744 5743 5743 5744 5744 5742 5741 5739 5738 5738 5737 5737 5736 5734 5731 5731 5730 5728 5726 5723 5720 5718 5715 5713 5712 5710 5709
5682 5684 5706 5714 5709 5701 5701 5693 5674 5665 5667 5677 5696 5696 5718 5745 5751 5752 5751 5748 5746 5744 5744 5743 5742 5740 5739 5737 5736 5734 5732 5729 5728 5727 5726 5724 5722 5719 5717 5715 5713 5710 5709 5708
5685 5687 5713 5720 5722 5714 5700 5694 5698 5684 5682 5677 5687 5705 5727 5744 5745 5746 5746 5744 5743 5745 5745 5744 5742 5741 5739 5737 5735 5734 5731 5728 5727 5725 5723 5721 5720 5718 5715 5714 5712 5709 5708 5707
5704 5692 5708 5720 5722 5720 5715 5707 5692 5684 5672 5668 5682 5696 5706 5727 5734 5741 5742 5742 5744 5746 5745 5744 5742 5741 5740 5738 5736 5734 5731 5728 5726 5723 5721 5720 5717 5716 5714 5712 5709 5707 5706 5704
5713 5696 5700 5709 5707 5705 5709 5706 5698 5685 5683 5671 5671 5692 5730 5733 5738 5740 5743 5746 5746 5746 5745 5743 5742 5741 5739 5736 5734 5731 5728 5726 5723 5721 5719 5717 5714 5713 5711 5709 5707 5705 5703 5701
5714 5696 5688 5701 5719 5725 5717 5712 5701 5685 5683 5683 5678 5695 5743 5743 5745 5745 5745 5746 5748 5748 5747 5745 5742 5739 5736 5733 5731 5729 5727 5724 5722 5720 5717 5714 5712 5710 5707 5705 5703 5702 5699 5697
5716 5695 5679 5684 5698 5713 5715 5717 5711 5699 5688 5680 5678 5699 5741 5742 5743 5745 5745 5745 5745 5745 5743 5741 5738 5736 5734 5732 5730 5728 5725 5723 5720 5717 5714 5711 5708 5706 5704 5702 5700 5698 5695 5693
5723 5699 5687 5682 5690 5703 5708 5715 5716 5703 5686 5686 5693 5708 5728 5735 5738 5741 5743 5745 5744 5743 5741 5738 5735 5734 5733 5731 5729 5726 5723 5721 5718 5715 5711 5708 5705 5703 5701 5699 5696 5694 5691 5688
5720 5701 5703 5705 5711 5713 5714 5716 5717 5711 5705 5697 5707 5713 5725 5734 5738 5742 5744 5743 5741 5738 5737 5736 5734 5732 5730 5728 5726 5724 5722 5719 5717 5712 5708 5706 5703 5701 5698 5695 5692 5690 5687 5684
5714 5704 5704 5704 5713 5712 5711 5717 5718 5717 5717 5713 5715 5719 5736 5741 5741 5740 5740 5739 5737 5736 5736 5736 5734 5731 5729 5727 5725 5722 5720 5717 5714 5710 5706 5703 5700 5696 5693 5691 5688 5684 5681 5678
5707 5701 5694 5688 5701 5705 5697 5714 5717 5717 5721 5719 5712 5723 5735 5735 5736 5737 5738 5738 5737 5737 5736 5735 5733 5732 5730 5728 5726 5722 5719 5715 5711 5707 5704 5700 5696 5692 5689 5687 5682 5679 5676 5673
5706 5696 5685 5683 5690 5681 5703 5727 5727 5721 5722 5726 5727 5730 5734 5734 5737 5739 5740 5739 5737 5737 5736 5735 5734 5732 5730 5728 5725 5722 5717 5712 5708 5704 5700 5697 5693 5689 5685 5681 5677 5674 5671 5668
5714 5699 5682 5675 5676 5684 5708 5724 5726 5718 5714 5726 5725 5728 5730 5733 5731 5729 5737 5739 5739 5739 5737 5736 5735 5732 5728 5725 5722 5717 5712 5708 5704 5701 5698 5695 5691 5686 5681 5677 5673 5670 5666 5663
5707 5700 5684 5673 5673 5673 5699 5725 5733 5722 5704 5724 5725 5724 5724 5723 5708 5714 5731 5734 5734 5735 5735 5733 5731 5727 5724 5721 5718 5713 5708 5703 5701 5699 5697 5693 5688 5684 5679 5675 5670 5666 5662 5658
5691 5685 5677 5670 5668 5680 5709 5723 5725 5696 5699 5721 5724 5723 5721 5716 5715 5722 5727 5728 5728 5729 5729 5728 5725 5721 5719 5717 5713 5708 5705 5702 5701 5698 5693 5688 5684 5680 5676 5671 5666 5662 5657 5653
5684 5677 5672 5666 5664 5676 5714 5716 5707 5707 5717 5720 5720 5721 5719 5717 5718 5719 5720 5720 5720 5720 5720 5720 5717 5714 5713 5711 5708 5703 5700 5700 5697 5693 5688 5684 5680 5676 5672 5666 5661 5656 5651 5646
5684 5687 5681 5679 5683 5702 5711 5713 5718 5717 5714 5716 5715 5716 5715 5712 5711 5712 5711 5711 5712 5712 5711 5711 5709 5706 5704 5703 5702 5697 5696 5694 5690 5686 5681 5678 5674 5670 5666 5661 5655 5650 5645 5640
5687 5693 5684 5681 5689 5699 5706 5710 5713 5714 5713 5713 5713 5711 5710 5706 5704 5703 5702 5701 5702 5702 5702 5701 5699 5696 5694 5694 5693 5692 5690 5687 5683 5678 5674 5671 5666 5662 5659 5655 5650 5645 5640 5635
5684 5686 5678 5676 5685 5692 5698 5701 5704 5706 5707 5706 5706 5705 5703 5700 5697 5695 5693 5692 5692 5692 5692 5691 5690 5687 5685 5685 5684 5683 5681 5679 5674 5670 5667 5663 5659 5655 5651 5647 5644 5640 5637 5633
5680 5679 5675 5674 5684 5682 5686 5695 5699 5698 5697 5697 5696 5694 5694 5692 5689 5687 5684 5684 5683 5682 5682 5680 5679 5677 5676 5675 5674 5673 5672 5670 5666 5661 5657 5653 5649 5646 5642 5638 5635 5633 5630 5628